Shepherd Bay, Nunavut

11:55 AM CST on February 21, 2017 (GMT -0600)
Shepherd Bay

Weather History for CYUS - April, 2013

Change the Weather History Date:

Wednesday, April 3, 2013

  Actual Average (CYYH) Record (CYYH)
Temperature  
Mean Temperature -27 °F -  
Max Temperature -18 °F 3 °F 6 °F (1999)
Min Temperature -36 °F -16 °F -38 °F (2008)
Degree Days  
Heating Degree Days 92    
Moisture  
Dew Point -    
Average Humidity    
Maximum Humidity    
Minimum Humidity    
Precipitation  
Precipitation 0.00 in 0.01 in - ()
Sea Level Pressure  
Sea Level Pressure 30.27 in    
Wind  
Wind Speed 7 mph ()    
Max Wind Speed 10 mph    
Max Gust Speed -    
Visibility 9.0 miles    
Events      
Averages and records for this station are not official NWS values.
T = Trace of Precipitation, MM = Missing Value Source: Averaged Metar Reports

Daily Weather History Graph

Daily Weather History Graph

Search for Another Location

Airport or City:

Trip Planner

Search our weather history database for the weather conditions in past years. The results will help you decide how hot, cold, wet, or windy it might be!

Date:

Astronomy

Apr. 03, 2013 Rise Set
Actual Time 6:10 AM CDT 8:26 PM CDT
Civil Twilight 5:07 AM CDT 9:29 PM CDT
Nautical Twilight 3:35 AM CDT 11:04 PM CDT
Astronomical Twilight Sun does not rise Sun does not rise
Moon 5:25 AM CDT (4/3) 10:09 AM CDT (4/3)
Length of Visible Light 16h 22m
Length of Day
14h 15m
Last Quarter, 44% of the Moon is Illuminated
Apr 3
Last Quarter
Apr 10
New
Apr 18
First Quarter
Apr 25
Full
May 2
Last Quarter

Hourly Weather History & Observations

Time (CDT) Temp. Windchill Dew Point Humidity Pressure Visibility Wind Dir Wind Speed Gust Speed Precip Events Conditions
12:00 AM -31.0 °F -53.4 °F - N/A% 30.22 in 9.0 mi SSE 9.2 mph - N/A   Unknown
1:00 AM -31 °F - - % 30.22 in 9 mi SSW 8.1 mph - -  
1:00 AM -31.0 °F -50.3 °F - N/A% 30.22 in 9.0 mi South 6.9 mph - N/A   Unknown
1:30 AM -29.2 °F -49.7 °F - N/A% 30.19 in 9.0 mi SSW 8.1 mph - N/A   Unknown
2:00 AM -25.6 °F -46.8 °F - N/A% 30.22 in 9.0 mi SW 9.2 mph - N/A   Unknown
2:15 AM -27.4 °F -39.2 °F - N/A% 30.19 in 9.0 mi SE 3.5 mph - N/A   Unknown
3:00 AM -36.4 °F -56.8 °F - N/A% 30.23 in 9.0 mi SSE 6.9 mph - N/A   Unknown
4:00 AM -34 °F - - % 30.23 in 9 mi South 5.8 mph - -  
4:00 AM -34.6 °F -54.6 °F - N/A% 30.23 in 9.0 mi SSW 6.9 mph - N/A   Unknown
5:00 AM -36.4 °F -56.8 °F - N/A% 30.24 in 9.0 mi SSE 6.9 mph - N/A   Unknown
6:00 AM -36.4 °F -60.1 °F - N/A% 30.25 in 9.0 mi ESE 9.2 mph - N/A   Unknown
7:00 AM -36 °F - - % 30.26 in 9 mi SE 9.2 mph - -  
7:00 AM -36.4 °F -60.1 °F - N/A% 30.26 in 9.0 mi SSE 9.2 mph - N/A   Unknown
8:00 AM -34.6 °F -56.3 °F - N/A% 30.27 in 9.0 mi ESE 8.1 mph - N/A   Unknown
9:00 AM -31.0 °F -54.7 °F - N/A% 30.27 in 9.0 mi SE 10.4 mph - N/A   Unknown
10:00 AM -28 °F - - % 30.27 in 9 mi South 8.1 mph - -  
10:00 AM -27.4 °F -49.0 °F - N/A% 30.27 in 9.0 mi SSE 9.2 mph - N/A   Unknown
11:00 AM -25.6 °F -43.8 °F - N/A% 30.27 in 9.0 mi SE 6.9 mph - N/A   Unknown
11:48 AM -23.8 °F -41.6 °F - N/A% 30.24 in 9.0 mi SSE 6.9 mph - N/A   Unknown
11:49 AM -23.8 °F -41.6 °F - N/A% 30.24 in 9.0 mi SSE 6.9 mph - N/A   Unknown
12:00 PM -23.8 °F -41.6 °F - N/A% 30.28 in 9.0 mi SSE 6.9 mph - N/A   Unknown
12:04 PM -23.8 °F -41.6 °F - N/A% 30.24 in 9.0 mi SSE 6.9 mph - N/A   Unknown
1:00 PM -21 °F - - % 30.28 in 9 mi SSE 6.9 mph - -  
1:00 PM -20.2 °F -38.8 °F - N/A% 30.28 in 9.0 mi SE 8.1 mph - N/A   Unknown
2:00 PM -20.2 °F -38.8 °F - N/A% 30.28 in 9.0 mi SE 8.1 mph - N/A   Unknown
3:00 PM -18.4 °F -35.1 °F - N/A% 30.30 in 9.0 mi SSE 6.9 mph - N/A   Unknown
4:00 PM -19 °F - - % 30.30 in 9 mi SE 6.9 mph - -  
4:00 PM -18.4 °F -35.1 °F - N/A% 30.30 in 9.0 mi SE 6.9 mph - N/A   Unknown
5:00 PM -18.4 °F -31.4 °F - N/A% 30.31 in 9.0 mi SE 4.6 mph - N/A   Unknown
6:00 PM -20.2 °F -33.5 °F - N/A% 30.32 in 9.0 mi SSE 4.6 mph - N/A   Unknown
7:00 PM -21 °F - - % 30.32 in 9 mi ESE 5.8 mph - -  
7:00 PM -22.0 °F -37.7 °F - N/A% 30.32 in 9.0 mi ESE 5.8 mph - N/A   Unknown
8:00 PM -23.8 °F -39.8 °F - N/A% 30.32 in 9.0 mi ESE 5.8 mph - N/A   Unknown
9:00 PM -25.6 °F -45.4 °F - N/A% 30.32 in 9.0 mi East 8.1 mph - N/A   Unknown
10:00 PM -26 °F - - % 30.32 in 9 mi ESE 6.9 mph - -  
10:00 PM -25.6 °F -43.8 °F - N/A% 30.32 in 9.0 mi ESE 6.9 mph - N/A   Unknown
10:03 PM -25.6 °F -43.8 °F - N/A% 30.29 in 9.0 mi SE 6.9 mph - N/A   Unknown
10:21 PM -23.8 °F -39.8 °F - N/A% 30.29 in 9.0 mi SE 5.8 mph - N/A   Unknown
10:42 PM -25.6 °F -39.8 °F - N/A% 30.29 in 9.0 mi SE 4.6 mph - N/A   Unknown
11:00 PM -25.6 °F -37.1 °F - N/A% 30.32 in 9.0 mi SSE 3.5 mph - N/A   Unknown
11:23 PM -22.0 °F -35.6 °F - N/A% 30.29 in 9.0 mi South 4.6 mph - N/A   Unknown